| time (UTC) | temp C | wind direction | speed KPH | gust KPH | rain 1hr cm | rain 24hr cm | rain mn cm | humidity % | barometer mb |
| 20260507181600 | 16 | 243 | 6.4 | 16.1 | 0.00 | 0.43 | 0.05 | 34 | 1004.4 |
| 20260507180048 | 16 | 249 | 9.7 | 17.7 | 0.00 | 0.43 | 0.05 | 36 | 1004.8 |
| 20260507174554 | 16 | 261 | 4.8 | 12.9 | 0.00 | 0.43 | 0.05 | 36 | 1004.7 |
| 20260507173047 | 16 | 269 | 8.0 | 17.7 | 0.00 | 0.43 | 0.05 | 41 | 1004.5 |
| 20260507171546 | 16 | 313 | 3.2 | 11.3 | 0.00 | 0.43 | 0.05 | 41 | 1004.6 |
| 20260507170050 | 16 | 265 | 3.2 | 12.9 | 0.00 | 0.43 | 0.05 | 43 | 1005.0 |
| 20260507164542 | 16 | 216 | 1.6 | 9.7 | 0.00 | 0.43 | 0.05 | 47 | 1005.0 |
| 20260507163040 | 15 | 238 | 4.8 | 12.9 | 0.00 | 0.43 | 0.05 | 47 | 1005.1 |
| 20260507161539 | 15 | 302 | 4.8 | 11.3 | 0.00 | 0.43 | 0.05 | 51 | 1005.4 |
| 20260507160036 | 15 | 196 | 4.8 | 14.5 | 0.00 | 0.43 | 0.05 | 53 | 1005.4 |
| 20260507154534 | 15 | 213 | 4.8 | 12.9 | 0.00 | 0.43 | 0.05 | 58 | 1005.6 |
| 20260507153032 | 15 | 259 | 6.4 | 14.5 | 0.00 | 0.43 | 0.05 | 60 | 1005.6 |
| 20260507151531 | 15 | 320 | 4.8 | 12.9 | 0.00 | 0.43 | 0.05 | 62 | 1005.7 |
| 20260507150031 | 14 | 268 | 3.2 | 9.7 | 0.00 | 0.43 | 0.05 | 65 | 1005.9 |
| 20260507144526 | 14 | 320 | 3.2 | 12.9 | 0.00 | 0.43 | 0.05 | 65 | 1005.9 |
| 20260507143027 | 13 | 84 | 4.8 | 9.7 | 0.00 | 0.43 | 0.05 | 65 | 1006.1 |
| 20260507141523 | 13 | 197 | 3.2 | 8.0 | 0.00 | 0.43 | 0.05 | 67 | 1006.0 |
| 20260507140020 | 13 | 355 | 1.6 | 6.4 | 0.00 | 0.43 | 0.05 | 68 | 1006.1 |
| 20260507134518 | 13 | 250 | 3.2 | 9.7 | 0.00 | 0.43 | 0.05 | 68 | 1006.0 |
| 20260507133016 | 13 | 250 | 1.6 | 6.4 | 0.00 | 0.43 | 0.05 | 70 | 1006.0 |
| 20260507131519 | 13 | 9 | 1.6 | 6.4 | 0.00 | 0.43 | 0.05 | 70 | 1006.3 |
| 20260507130009 | 12 | 73 | 3.2 | 8.0 | 0.00 | 0.43 | 0.05 | 72 | 1006.4 |
| 20260507124509 | 12 | 84 | 1.6 | 8.0 | 0.00 | 0.43 | 0.05 | 77 | 1006.5 |
| 20260507123100 | 11 | 53 | 1.6 | 8.0 | 0.00 | 0.43 | 0.05 | 82 | 1006.4 |
| 20260507121607 | 10 | 89 | 1.6 | 6.4 | 0.00 | 0.43 | 0.05 | 83 | 1006.6 |
| 20260507120100 | 10 | 76 | 1.6 | 4.8 | 0.00 | 0.43 | 0.05 | 84 | 1006.5 |
| 20260507114611 | 10 | 105 | 3.2 | 4.8 | 0.00 | 0.43 | 0.05 | 85 | 1006.5 |
| 20260507113053 | 9 | 155 | 0.0 | 4.8 | 0.00 | 0.43 | 0.05 | 87 | 1006.3 |
| 20260507111551 | 9 | 153 | 0.0 | 3.2 | 0.00 | 0.43 | 0.05 | 87 | 1006.4 |
| 20260507110050 | 8 | 148 | 0.0 | 3.2 | 0.00 | 0.43 | 0.05 | 88 | 1006.0 |
| 20260507104546 | 8 | 144 | 0.0 | 1.6 | 0.00 | 0.43 | 0.05 | 88 | 1006.4 |
| 20260507103045 | 8 | 144 | 0.0 | 3.2 | 0.03 | 0.43 | 0.05 | 88 | 1005.8 |
| 20260507101543 | 8 | 155 | 0.0 | 3.2 | 0.03 | 0.43 | 0.05 | 88 | 1005.6 |
| 20260507100042 | 8 | 144 | 0.0 | 3.2 | 0.03 | 0.43 | 0.05 | 88 | 1005.8 |
| 20260507094541 | 8 | 152 | 0.0 | 4.8 | 0.03 | 0.43 | 0.05 | 88 | 1005.1 |
| 20260507093040 | 9 | 140 | 1.6 | 3.2 | 0.00 | 0.41 | 0.03 | 89 | 1005.7 |
| 20260507091535 | 9 | 153 | 1.6 | 3.2 | 0.00 | 0.41 | 0.03 | 89 | 1005.6 |
| 20260507090037 | 9 | 146 | 1.6 | 3.2 | 0.00 | 0.41 | 0.03 | 89 | 1006.1 |
| 20260507084531 | 10 | 167 | 1.6 | 4.8 | 0.00 | 0.41 | 0.03 | 89 | 1005.8 |
| 20260507083029 | 10 | 137 | 1.6 | 6.4 | 0.00 | 0.41 | 0.03 | 89 | 1005.7 |
| 20260507081540 | 10 | 139 | 1.6 | 4.8 | 0.00 | 0.41 | 0.03 | 90 | 1005.3 |
| 20260507080026 | 10 | 140 | 1.6 | 4.8 | 0.00 | 0.41 | 0.03 | 89 | 1005.4 |
| 20260507074543 | 10 | 130 | 3.2 | 6.4 | 0.03 | 0.41 | 0.03 | 89 | 1005.6 |
| 20260507073020 | 11 | 130 | 4.8 | 8.0 | 0.03 | 0.41 | 0.03 | 88 | 1005.6 |
| 20260507071518 | 11 | 155 | 1.6 | 8.0 | 0.03 | 0.41 | 0.03 | 89 | 1004.8 |
| 20260507070020 | 11 | 138 | 1.6 | 4.8 | 0.00 | 0.38 | 0.00 | 89 | 1004.8 |
| 20260507064514 | 11 | 134 | 0.0 | 3.2 | 0.00 | 0.38 | 0.00 | 89 | 1004.5 |
| 20260507063021 | 11 | 140 | 1.6 | 4.8 | 0.00 | 0.38 | 0.00 | 89 | 1004.7 |
| 20260507061511 | 12 | 134 | 1.6 | 4.8 | 0.00 | 0.38 | 0.00 | 91 | 1004.7 |
| 20260507060012 | 12 | 140 | 1.6 | 4.8 | 0.00 | 0.38 | 0.00 | 91 | 1004.7 |
| 20260507054507 | 12 | 137 | 0.0 | 4.8 | 0.00 | 0.38 | 0.00 | 90 | 1004.7 |
| 20260507053007 | 12 | 138 | 1.6 | 4.8 | 0.00 | 0.38 | 0.00 | 91 | 1005.1 |
| 20260507051505 | 12 | 131 | 1.6 | 3.2 | 0.00 | 0.38 | 0.00 | 90 | 1005.1 |
| 20260507050006 | 12 | 142 | 1.6 | 3.2 | 0.00 | 0.38 | 0.00 | 90 | 1005.1 |
| 20260507044500 | 13 | 131 | 0.0 | 4.8 | 0.00 | 0.38 | 0.00 | 90 | 1005.3 |
| 20260507043100 | 13 | 158 | 1.6 | 4.8 | 0.00 | 0.38 | 0.00 | 91 | 1004.9 |
| 20260507041601 | 13 | 119 | 3.2 | 6.4 | 0.00 | 0.38 | 0.00 | 91 | 1004.9 |
| 20260507040051 | 14 | 116 | 3.2 | 4.8 | 0.00 | 0.38 | 0.00 | 92 | 1005.0 |
| 20260507034557 | 14 | 114 | 3.2 | 6.4 | 0.03 | 0.38 | 0.38 | 92 | 1004.8 |
| 20260507033054 | 14 | 111 | 3.2 | 4.8 | 0.03 | 0.38 | 0.38 | 92 | 1004.4 |
| 20260507031602 | 15 | 104 | 3.2 | 9.7 | 0.03 | 0.38 | 0.38 | 93 | 1004.4 |
| 20260507030053 | 15 | 105 | 1.6 | 9.7 | 0.03 | 0.38 | 0.38 | 93 | 1004.0 |
| 20260507024547 | 15 | 102 | 1.6 | 4.8 | 0.00 | 0.36 | 0.36 | 93 | 1003.8 |
| 20260507023049 | 15 | 107 | 1.6 | 6.4 | 0.00 | 0.36 | 0.36 | 93 | 1003.9 |
| 20260507021545 | 15 | 96 | 3.2 | 6.4 | 0.00 | 0.36 | 0.36 | 93 | 1003.9 |
| 20260507020048 | 15 | 108 | 1.6 | 9.7 | 0.00 | 0.36 | 0.36 | 93 | 1003.8 |
| 20260507014551 | 15 | 113 | 1.6 | 6.4 | 0.00 | 0.36 | 0.36 | 93 | 1003.8 |
| 20260507013045 | 15 | 126 | 1.6 | 6.4 | 0.00 | 0.36 | 0.36 | 93 | 1003.9 |
| 20260507011544 | 15 | 139 | 3.2 | 6.4 | 0.00 | 0.36 | 0.36 | 93 | 1003.9 |
| 20260507010044 | 15 | 102 | 3.2 | 9.7 | 0.00 | 0.36 | 0.36 | 93 | 1004.0 |
| 20260507004541 | 15 | 92 | 1.6 | 6.4 | 0.00 | 0.36 | 0.36 | 93 | 1004.0 |
| 20260507003043 | 15 | 109 | 1.6 | 6.4 | 0.00 | 0.36 | 0.36 | 93 | 1004.0 |
| 20260507001543 | 15 | 86 | 1.6 | 6.4 | 0.03 | 0.36 | 0.36 | 93 | 1003.9 |
| 20260507000041 | 15 | 109 | 1.6 | 6.4 | 0.08 | 0.36 | 0.36 | 93 | 1003.8 |
| 20260506234538 | 15 | 97 | 1.6 | 6.4 | 0.13 | 0.36 | 0.36 | 93 | 1003.6 |
| 20260506233042 | 15 | 84 | 1.6 | 9.7 | 0.13 | 0.36 | 0.36 | 93 | 1003.6 |
| 20260506231536 | 15 | 107 | 3.2 | 6.4 | 0.10 | 0.33 | 0.33 | 92 | 1003.4 |
| 20260506230034 | 15 | 99 | 3.2 | 14.5 | 0.05 | 0.25 | 0.25 | 92 | 1003.6 |
| 20260506224533 | 15 | 84 | 1.6 | 6.4 | 0.03 | 0.23 | 0.23 | 92 | 1003.8 |
| 20260506223035 | 15 | 86 | 1.6 | 6.4 | 0.03 | 0.23 | 0.23 | 92 | 1003.8 |
| 20260506221531 | 15 | 132 | 3.2 | 11.3 | 0.03 | 0.23 | 0.23 | 91 | 1003.8 |
| 20260506220030 | 15 | 104 | 1.6 | 11.3 | 0.03 | 0.20 | 0.20 | 91 | 1004.0 |
| 20260506214528 | 15 | 30 | 3.2 | 12.9 | 0.03 | 0.20 | 0.20 | 91 | 1004.0 |
| 20260506213027 | 15 | 105 | 1.6 | 6.4 | 0.05 | 0.20 | 0.20 | 91 | 1004.3 |
| 20260506211525 | 15 | 107 | 1.6 | 6.4 | 0.08 | 0.20 | 0.20 | 91 | 1004.5 |
| 20260506210027 | 15 | 103 | 3.2 | 11.3 | 0.08 | 0.18 | 0.18 | 90 | 1004.5 |
| 20260506204625 | 15 | 78 | 4.8 | 14.5 | 0.08 | 0.18 | 0.18 | 90 | 1004.5 |
| 20260506203022 | 16 | 96 | 1.6 | 9.7 | 0.08 | 0.15 | 0.15 | 90 | 1004.8 |
| 20260506201522 | 16 | 80 | 3.2 | 14.5 | 0.08 | 0.13 | 0.13 | 89 | 1004.7 |
| 20260506200020 | 16 | 92 | 1.6 | 19.3 | 0.08 | 0.10 | 0.10 | 89 | 1004.7 |
| 20260506194522 | 16 | 89 | 3.2 | 9.7 | 0.10 | 0.10 | 0.10 | 88 | 1004.7 |
| 20260506193019 | 17 | 71 | 1.6 | 9.7 | 0.08 | 0.08 | 0.08 | 88 | 1004.7 |
| 20260506191519 | 17 | 74 | 0.0 | 6.4 | 0.05 | 0.05 | 0.05 | 88 | 1004.6 |
| 20260506190015 | 18 | 71 | 1.6 | 11.3 | 0.03 | 0.03 | 0.03 | 83 | 1004.8 |
| 20260506184515 | 19 | 360 | 3.2 | 14.5 | 0.00 | 0.00 | 0.00 | 78 | 1004.9 |
| 20260506183013 | 20 | 81 | 1.6 | 14.5 | 0.00 | 0.00 | 0.00 | 75 | 1004.8 |